Location: Newark
(6.1731°S, 35.7419°E)
Time: 16:17:09
(UTC+00:00)

Transit 2A Rocket - Visible Passes

Search period start: 26 February 2020 00:00
Search period end: 07 March 2020 00:00
Orbit: 591 x 912 km, 66.7° (Epoch: 25 February)

Date Brightness Start Highest point End Pass type
(mag) Time Alt. Az. Time Alt. Az. Time Alt. Az.
26 Feb 5.6 16:33:26 10° SSE 16:37:13 25° ESE 16:39:52 15° ENE visible
26 Feb 7.4 18:17:28 10° W 18:19:23 13° WNW 18:19:51 12° WNW visible
27 Feb 6.3 17:33:05 10° SW 17:37:00 30° WNW 17:39:44 16° NNW visible
28 Feb 4.7 16:50:04 10° SSW 16:54:34 74° WNW 16:58:51 10° NNE visible
01 Mar 7.3 17:08:53 10° WSW 17:11:46 17° WNW 17:14:35 10° NNW visible
02 Mar 6.0 16:25:11 10° SW 16:29:22 40° WNW 16:33:23 10° N visible
03 Mar 7.9 03:15:20 10° NNE 03:19:48 22° ENE 03:24:22 10° ESE visible
04 Mar 8.5 02:36:30 10° ENE 02:37:23 10° ENE 02:38:16 10° E visible
06 Mar 7.1 02:49:20 10° N 02:54:40 34° ENE 03:00:07 10° SE visible
